Time,TemperatureF,DewpointF,PressureIn,WindDirection,WindDirectionDegrees,WindSpeedMPH,WindSpeedGustMPH,Humidity,HourlyPrecipIn,Conditions,Clouds,dailyrainin,SoftwareType,DateUTC
2013-02-18 00:00:00,29.3,25.4,30.32,NNW,347,0.0,0.0,85,0.00,,,0.00,Wunderground v.1.15,2013-02-18 05:00:00,
2013-02-18 00:05:00,29.4,25.4,30.33,NNW,347,0.0,0.0,85,0.00,,,0.00,Wunderground v.1.15,2013-02-18 05:05:00,
2013-02-18 00:10:00,29.3,25.6,30.32,NNW,346,0.0,0.0,86,0.00,,,0.00,Wunderground v.1.15,2013-02-18 05:10:00,
2013-02-18 00:20:00,29.1,25.4,30.33,NNW,346,0.0,0.0,86,0.00,,,0.00,Wunderground v.1.15,2013-02-18 05:20:00,
2013-02-18 00:25:00,29.0,25.3,30.33,NNW,347,0.0,0.0,86,0.00,,,0.00,Wunderground v.1.15,2013-02-18 05:25:00,
2013-02-18 00:30:00,28.8,24.9,30.33,NNW,347,0.0,0.0,85,0.00,,,0.00,Wunderground v.1.15,2013-02-18 05:30:00,
2013-02-18 00:35:00,28.6,24.9,30.33,NNW,346,0.0,0.0,86,0.00,,,0.00,Wunderground v.1.15,2013-02-18 05:35:00,
2013-02-18 00:40:00,28.4,24.7,30.33,NNW,346,0.0,0.0,86,0.00,,,0.00,Wunderground v.1.15,2013-02-18 05:40:00,
2013-02-18 00:45:00,28.3,24.6,30.33,NNW,347,0.0,0.0,86,0.00,,,0.00,Wunderground v.1.15,2013-02-18 05:45:00,
2013-02-18 00:50:00,28.1,24.5,30.33,NNW,347,0.0,0.0,86,0.00,,,0.00,Wunderground v.1.15,2013-02-18 05:50:00,
2013-02-18 00:55:00,27.8,23.9,30.33,NNW,347,0.0,0.0,85,0.00,,,0.00,Wunderground v.1.15,2013-02-18 05:55:00,
2013-02-18 01:00:00,27.4,23.8,30.33,NNW,347,0.0,0.0,86,0.00,,,0.00,Wunderground v.1.15,2013-02-18 06:00:00,
2013-02-18 01:05:00,27.2,23.6,30.33,NNW,346,0.0,0.0,86,0.00,,,0.00,Wunderground v.1.15,2013-02-18 06:05:00,
2013-02-18 01:15:00,26.7,23.1,30.33,NNW,346,0.0,0.0,86,0.00,,,0.00,Wunderground v.1.15,2013-02-18 06:15:00,
2013-02-18 01:20:00,26.7,23.1,30.33,NNW,346,0.0,0.0,86,0.00,,,0.00,Wunderground v.1.15,2013-02-18 06:20:00,
2013-02-18 01:30:00,27.2,23.8,30.33,NNW,347,0.0,0.0,87,0.00,,,0.00,Wunderground v.1.15,2013-02-18 06:30:00,
2013-02-18 01:35:00,27.4,24.0,30.33,NNW,346,0.0,0.0,87,0.00,,,0.00,Wunderground v.1.15,2013-02-18 06:35:00,
2013-02-18 01:40:00,27.6,24.2,30.33,NNW,347,0.0,0.0,87,0.00,,,0.00,Wunderground v.1.15,2013-02-18 06:40:00,
2013-02-18 01:45:00,27.6,24.2,30.33,NNW,347,0.0,0.0,87,0.00,,,0.00,Wunderground v.1.15,2013-02-18 06:45:00,
2013-02-18 01:50:00,27.5,24.1,30.33,NNW,347,0.0,0.0,87,0.00,,,0.00,Wunderground v.1.15,2013-02-18 06:50:00,
2013-02-18 01:55:00,27.3,23.9,30.33,NNW,346,0.0,0.0,87,0.00,,,0.00,Wunderground v.1.15,2013-02-18 06:55:00,
2013-02-18 02:00:00,26.8,23.4,30.33,NNW,346,0.0,0.0,87,0.00,,,0.00,Wunderground v.1.15,2013-02-18 07:00:00,
2013-02-18 02:05:00,26.5,23.2,30.33,NNW,346,0.0,0.0,87,0.00,,,0.00,Wunderground v.1.15,2013-02-18 07:05:00,
2013-02-18 02:15:00,26.9,23.8,30.32,NNW,347,0.0,0.0,88,0.00,,,0.00,Wunderground v.1.15,2013-02-18 07:15:00,
2013-02-18 02:20:00,27.2,24.1,30.32,NNW,346,0.0,0.0,88,0.00,,,0.00,Wunderground v.1.15,2013-02-18 07:20:00,
2013-02-18 02:25:00,27.3,24.2,30.32,NNW,346,0.0,0.0,88,0.00,,,0.00,Wunderground v.1.15,2013-02-18 07:25:00,
2013-02-18 02:30:00,27.2,24.1,30.32,NNW,347,0.0,0.0,88,0.00,,,0.00,Wunderground v.1.15,2013-02-18 07:30:00,
2013-02-18 02:35:00,27.2,24.1,30.32,NNW,347,0.0,0.0,88,0.00,,,0.00,Wunderground v.1.15,2013-02-18 07:35:00,
2013-02-18 02:40:00,27.1,24.0,30.32,NNW,347,0.0,0.0,88,0.00,,,0.00,Wunderground v.1.15,2013-02-18 07:40:00,
2013-02-18 02:45:00,27.1,24.0,30.32,NNW,346,0.0,0.0,88,0.00,,,0.00,Wunderground v.1.15,2013-02-18 07:45:00,
2013-02-18 02:50:00,27.0,23.9,30.31,NNW,346,0.0,0.0,88,0.00,,,0.00,Wunderground v.1.15,2013-02-18 07:50:00,
2013-02-18 02:55:00,27.0,23.9,30.31,NNW,346,0.0,0.0,88,0.00,,,0.00,Wunderground v.1.15,2013-02-18 07:55:00,
2013-02-18 03:00:00,26.8,23.7,30.31,NNW,347,0.0,0.0,88,0.00,,,0.00,Wunderground v.1.15,2013-02-18 08:00:00,
2013-02-18 03:05:00,26.7,23.6,30.31,NNW,347,0.0,0.0,88,0.00,,,0.00,Wunderground v.1.15,2013-02-18 08:05:00,
2013-02-18 03:10:00,26.3,23.2,30.31,NNW,346,0.0,0.0,88,0.00,,,0.00,Wunderground v.1.15,2013-02-18 08:10:00,
2013-02-18 03:15:00,26.1,23.0,30.31,NNW,347,0.0,0.0,88,0.00,,,0.00,Wunderground v.1.15,2013-02-18 08:15:00,
2013-02-18 03:25:00,26.1,23.0,30.31,NNW,347,0.0,0.0,88,0.00,,,0.00,Wunderground v.1.15,2013-02-18 08:25:00,
2013-02-18 03:30:00,26.3,23.5,30.31,NNW,346,0.0,0.0,89,0.00,,,0.00,Wunderground v.1.15,2013-02-18 08:30:00,
2013-02-18 03:35:00,26.6,23.8,30.31,NNW,346,0.0,0.0,89,0.00,,,0.00,Wunderground v.1.15,2013-02-18 08:35:00,
2013-02-18 03:40:00,26.7,23.9,30.31,NNW,347,0.0,0.0,89,0.00,,,0.00,Wunderground v.1.15,2013-02-18 08:40:00,
2013-02-18 03:45:00,27.0,24.2,30.31,NNW,347,0.0,0.0,89,0.00,,,0.00,Wunderground v.1.15,2013-02-18 08:45:00,
2013-02-18 03:50:00,27.3,24.8,30.31,NNW,347,0.0,0.0,90,0.00,,,0.00,Wunderground v.1.15,2013-02-18 08:50:00,
2013-02-18 03:55:00,27.6,25.1,30.31,NNW,347,0.0,0.0,90,0.00,,,0.00,Wunderground v.1.15,2013-02-18 08:55:00,
2013-02-18 04:05:00,27.4,24.6,30.31,NNW,347,0.0,0.0,89,0.00,,,0.00,Wunderground v.1.15,2013-02-18 09:05:00,
2013-02-18 04:10:00,27.0,24.2,30.31,NNW,347,0.0,0.0,89,0.00,,,0.00,Wunderground v.1.15,2013-02-18 09:10:00,
2013-02-18 04:15:00,26.8,24.0,30.31,NNW,347,0.0,0.0,89,0.00,,,0.00,Wunderground v.1.15,2013-02-18 09:15:00,
2013-02-18 04:20:00,26.9,24.1,30.31,NNW,347,0.0,0.0,89,0.00,,,0.00,Wunderground v.1.15,2013-02-18 09:20:00,
2013-02-18 04:25:00,27.1,24.6,30.31,NNW,347,0.0,0.0,90,0.00,,,0.00,Wunderground v.1.15,2013-02-18 09:25:00,
2013-02-18 04:30:00,27.1,24.3,30.31,NNW,346,0.0,0.0,89,0.00,,,0.00,Wunderground v.1.15,2013-02-18 09:30:00,
2013-02-18 04:35:00,26.9,24.1,30.31,NNW,346,0.0,0.0,89,0.00,,,0.00,Wunderground v.1.15,2013-02-18 09:35:00,
2013-02-18 04:40:00,26.4,23.6,30.31,NNW,347,0.0,0.0,89,0.00,,,0.00,Wunderground v.1.15,2013-02-18 09:40:00,
2013-02-18 04:45:00,26.1,23.3,30.31,NNW,346,0.0,0.0,89,0.00,,,0.00,Wunderground v.1.15,2013-02-18 09:45:00,
2013-02-18 04:50:00,26.0,23.2,30.31,NNW,347,0.0,0.0,89,0.00,,,0.00,Wunderground v.1.15,2013-02-18 09:50:00,
2013-02-18 04:55:00,25.9,23.1,30.31,NNW,346,0.0,0.0,89,0.00,,,0.00,Wunderground v.1.15,2013-02-18 09:55:00,
2013-02-18 05:00:00,26.0,23.5,30.31,NNW,347,0.0,0.0,90,0.00,,,0.00,Wunderground v.1.15,2013-02-18 10:00:00,
2013-02-18 05:05:00,26.0,23.5,30.31,NNW,346,0.0,0.0,90,0.00,,,0.00,Wunderground v.1.15,2013-02-18 10:05:00,
2013-02-18 05:15:00,25.8,23.3,30.31,NNW,346,0.0,0.0,90,0.00,,,0.00,Wunderground v.1.15,2013-02-18 10:15:00,
2013-02-18 05:20:00,25.9,23.4,30.31,NNW,347,0.0,0.0,90,0.00,,,0.00,Wunderground v.1.15,2013-02-18 10:20:00,
2013-02-18 05:25:00,26.2,23.7,30.31,NNW,346,0.0,0.0,90,0.00,,,0.00,Wunderground v.1.15,2013-02-18 10:25:00,
2013-02-18 05:30:00,26.3,23.8,30.31,NNW,347,0.0,0.0,90,0.00,,,0.00,Wunderground v.1.15,2013-02-18 10:30:00,
2013-02-18 05:35:00,26.5,24.0,30.32,NNW,347,0.0,0.0,90,0.00,,,0.00,Wunderground v.1.15,2013-02-18 10:35:00,
2013-02-18 05:40:00,26.5,24.0,30.31,NNW,347,0.0,0.0,90,0.00,,,0.00,Wunderground v.1.15,2013-02-18 10:40:00,
2013-02-18 05:45:00,26.4,23.9,30.31,NNW,347,0.0,0.0,90,0.00,,,0.00,Wunderground v.1.15,2013-02-18 10:45:00,
2013-02-18 05:50:00,26.2,23.7,30.32,NNW,346,0.0,0.0,90,0.00,,,0.00,Wunderground v.1.15,2013-02-18 10:50:00,
2013-02-18 05:55:00,26.0,23.5,30.32,NNW,346,0.0,0.0,90,0.00,,,0.00,Wunderground v.1.15,2013-02-18 10:55:00,
2013-02-18 06:05:00,25.5,22.7,30.32,NNW,347,0.0,0.0,89,0.00,,,0.00,Wunderground v.1.15,2013-02-18 11:05:00,
2013-02-18 06:10:00,25.1,22.6,30.32,NNW,346,0.0,0.0,90,0.00,,,0.00,Wunderground v.1.15,2013-02-18 11:10:00,
2013-02-18 06:15:00,24.7,21.9,30.32,NNW,347,0.0,0.0,89,0.00,,,0.00,Wunderground v.1.15,2013-02-18 11:15:00,
2013-02-18 06:20:00,24.4,21.6,30.32,NNW,346,0.0,0.0,89,0.00,,,0.00,Wunderground v.1.15,2013-02-18 11:20:00,
2013-02-18 06:25:00,24.3,21.8,30.32,NNW,346,0.0,0.0,90,0.00,,,0.00,Wunderground v.1.15,2013-02-18 11:25:00,
2013-02-18 06:35:00,24.5,22.0,30.32,NNW,347,0.0,0.0,90,0.00,,,0.00,Wunderground v.1.15,2013-02-18 11:35:00,
2013-02-18 06:40:00,24.8,22.3,30.33,NNW,347,0.0,0.0,90,0.00,,,0.00,Wunderground v.1.15,2013-02-18 11:40:00,
2013-02-18 06:45:00,25.1,22.8,30.32,NNW,346,0.0,0.0,91,0.00,,,0.00,Wunderground v.1.15,2013-02-18 11:45:00,
2013-02-18 06:50:00,25.1,22.6,30.33,NNW,347,0.0,0.0,90,0.00,,,0.00,Wunderground v.1.15,2013-02-18 11:50:00,
2013-02-18 06:55:00,25.0,22.5,30.32,NNW,346,0.0,0.0,90,0.00,,,0.00,Wunderground v.1.15,2013-02-18 11:55:00,
2013-02-18 07:05:00,25.6,23.3,30.33,NNW,347,0.0,0.0,91,0.00,,,0.00,Wunderground v.1.15,2013-02-18 12:05:00,
2013-02-18 07:15:00,26.7,24.7,30.32,NNW,346,0.0,0.0,92,0.00,,,0.00,Wunderground v.1.15,2013-02-18 12:15:00,
2013-02-18 07:20:00,27.1,25.1,30.33,NNW,346,0.0,0.0,92,0.00,,,0.00,Wunderground v.1.15,2013-02-18 12:20:00,
2013-02-18 07:25:00,27.3,25.0,30.33,NNW,347,0.0,0.0,91,0.00,,,0.00,Wunderground v.1.15,2013-02-18 12:25:00,
2013-02-18 07:30:00,27.7,25.7,30.33,NNW,347,0.0,0.0,92,0.00,,,0.00,Wunderground v.1.15,2013-02-18 12:30:00,
2013-02-18 07:35:00,28.2,26.2,30.33,NNW,346,0.0,0.0,92,0.00,,,0.00,Wunderground v.1.15,2013-02-18 12:35:00,
2013-02-18 07:45:00,29.8,27.8,30.33,NNW,347,0.0,0.0,92,0.00,,,0.00,Wunderground v.1.15,2013-02-18 12:45:00,
2013-02-18 07:55:00,32.1,30.3,30.33,NNW,347,0.0,0.0,93,0.00,,,0.00,Wunderground v.1.15,2013-02-18 12:55:00,
2013-02-18 08:00:00,33.4,31.6,30.33,NNW,347,0.0,0.0,93,0.00,,,0.00,Wunderground v.1.15,2013-02-18 13:00:00,
2013-02-18 08:05:00,34.9,33.1,30.33,NNW,347,0.0,0.0,93,0.00,,,0.00,Wunderground v.1.15,2013-02-18 13:05:00,
2013-02-18 08:10:00,36.2,34.4,30.33,NNW,347,0.0,0.0,93,0.00,,,0.00,Wunderground v.1.15,2013-02-18 13:10:00,
2013-02-18 08:15:00,37.6,35.8,30.33,NNW,347,0.0,0.0,93,0.00,,,0.00,Wunderground v.1.15,2013-02-18 13:15:00,
2013-02-18 08:20:00,38.8,36.9,30.33,NNW,346,1.0,1.0,93,0.00,,,0.00,Wunderground v.1.15,2013-02-18 13:20:00,
2013-02-18 08:25:00,40.0,37.9,30.33,NNW,347,1.0,3.0,92,0.00,,,0.00,Wunderground v.1.15,2013-02-18 13:25:00,
2013-02-18 08:30:00,41.1,37.5,30.33,NNW,347,3.0,3.0,87,0.00,,,0.00,Wunderground v.1.15,2013-02-18 13:30:00,
2013-02-18 08:35:00,42.3,37.8,30.33,NNW,347,4.0,4.0,84,0.00,,,0.00,Wunderground v.1.15,2013-02-18 13:35:00,
2013-02-18 08:40:00,43.4,37.3,30.33,NNW,347,4.0,4.0,79,0.00,,,0.00,Wunderground v.1.15,2013-02-18 13:40:00,
2013-02-18 08:45:00,44.3,35.8,30.33,North,355,4.0,5.0,72,0.00,,,0.00,Wunderground v.1.15,2013-02-18 13:45:00,
2013-02-18 08:50:00,45.0,35.8,30.33,North,355,4.0,4.0,70,0.00,,,0.00,Wunderground v.1.15,2013-02-18 13:50:00,
2013-02-18 08:55:00,45.8,35.1,30.33,North,355,4.0,4.0,66,0.00,,,0.00,Wunderground v.1.15,2013-02-18 13:55:00,
2013-02-18 09:00:00,46.6,35.1,30.33,North,355,4.0,5.0,64,0.00,,,0.00,Wunderground v.1.15,2013-02-18 14:00:00,
2013-02-18 09:05:00,47.4,34.6,30.34,North,360,5.0,6.0,61,0.00,,,0.00,Wunderground v.1.15,2013-02-18 14:05:00,
2013-02-18 09:10:00,47.9,34.3,30.34,North,11,5.0,7.0,59,0.00,,,0.00,Wunderground v.1.15,2013-02-18 14:10:00,
2013-02-18 09:15:00,48.4,33.4,30.34,NNE,24,5.0,7.0,56,0.00,,,0.00,Wunderground v.1.15,2013-02-18 14:15:00,
2013-02-18 09:25:00,50.0,34.0,30.34,North,11,5.0,6.0,54,0.00,,,0.00,Wunderground v.1.15,2013-02-18 14:25:00,
2013-02-18 09:30:00,50.6,35.0,30.34,NNE,28,5.0,9.0,55,0.00,,,0.00,Wunderground v.1.15,2013-02-18 14:30:00,
2013-02-18 09:35:00,51.1,34.5,30.34,NNE,15,6.0,9.0,53,0.00,,,0.00,Wunderground v.1.15,2013-02-18 14:35:00,
2013-02-18 09:40:00,51.8,34.7,30.34,North,360,6.0,6.0,52,0.00,,,0.00,Wunderground v.1.15,2013-02-18 14:40:00,
2013-02-18 09:45:00,52.6,35.0,30.34,NE,38,6.0,7.0,51,0.00,,,0.00,Wunderground v.1.15,2013-02-18 14:45:00,
2013-02-18 09:55:00,53.2,35.5,30.34,NE,35,6.0,7.0,51,0.00,,,0.00,Wunderground v.1.15,2013-02-18 14:55:00,
2013-02-18 10:00:00,53.6,35.9,30.34,NNE,31,6.0,6.0,51,0.00,,,0.00,Wunderground v.1.15,2013-02-18 15:00:00,
2013-02-18 10:05:00,54.0,36.3,30.34,NNE,30,7.0,7.0,51,0.00,,,0.00,Wunderground v.1.15,2013-02-18 15:05:00,
2013-02-18 10:10:00,54.5,36.2,30.34,NNE,15,6.0,6.0,50,0.00,,,0.00,Wunderground v.1.15,2013-02-18 15:10:00,
2013-02-18 10:15:00,55.3,37.5,30.34,NNE,13,6.0,7.0,51,0.00,,,0.00,Wunderground v.1.15,2013-02-18 15:15:00,
2013-02-18 10:20:00,55.6,37.2,30.34,ENE,63,7.0,7.0,50,0.00,,,0.00,Wunderground v.1.15,2013-02-18 15:20:00,
2013-02-18 10:25:00,55.9,37.5,30.34,NE,48,8.0,8.0,50,0.00,,,0.00,Wunderground v.1.15,2013-02-18 15:25:00,
2013-02-18 10:30:00,56.4,39.0,30.34,NE,50,7.0,13.0,52,0.00,,,0.00,Wunderground v.1.15,2013-02-18 15:30:00,
2013-02-18 10:35:00,56.5,38.6,30.34,ENE,58,7.0,13.0,51,0.00,,,0.00,Wunderground v.1.15,2013-02-18 15:35:00,
2013-02-18 10:40:00,56.4,38.0,30.33,NE,34,7.0,9.0,50,0.00,,,0.00,Wunderground v.1.15,2013-02-18 15:40:00,
2013-02-18 10:45:00,56.6,39.2,30.34,NNE,28,7.0,9.0,52,0.00,,,0.00,Wunderground v.1.15,2013-02-18 15:45:00,
2013-02-18 10:55:00,57.1,38.6,30.34,NNE,32,7.0,11.0,50,0.00,,,0.00,Wunderground v.1.15,2013-02-18 15:55:00,
2013-02-18 11:00:00,57.7,39.2,30.34,NE,34,7.0,7.0,50,0.00,,,0.00,Wunderground v.1.15,2013-02-18 16:00:00,
2013-02-18 11:05:00,58.5,40.9,30.34,ESE,109,6.0,9.0,52,0.00,,,0.00,Wunderground v.1.15,2013-02-18 16:05:00,
2013-02-18 11:10:00,58.9,40.8,30.34,NNE,27,6.0,6.0,51,0.00,,,0.00,Wunderground v.1.15,2013-02-18 16:10:00,
2013-02-18 11:15:00,59.3,41.2,30.34,NE,34,6.0,6.0,51,0.00,,,0.00,Wunderground v.1.15,2013-02-18 16:15:00,
2013-02-18 11:20:00,59.8,41.1,30.34,NE,52,6.0,8.0,50,0.00,,,0.00,Wunderground v.1.15,2013-02-18 16:20:00,
2013-02-18 11:30:00,60.0,41.8,30.33,ENE,64,6.0,9.0,51,0.00,,,0.00,Wunderground v.1.15,2013-02-18 16:30:00,
2013-02-18 11:40:00,60.1,42.4,30.33,ENE,57,7.0,7.0,52,0.00,,,0.00,Wunderground v.1.15,2013-02-18 16:40:00,
2013-02-18 11:45:00,60.5,42.8,30.33,ESE,115,7.0,7.0,52,0.00,,,0.00,Wunderground v.1.15,2013-02-18 16:45:00,
2013-02-18 11:50:00,60.8,43.6,30.32,East,82,6.0,6.0,53,0.00,,,0.00,Wunderground v.1.15,2013-02-18 16:50:00,
2013-02-18 12:00:00,61.2,42.9,30.32,ENE,67,7.0,7.0,51,0.00,,,0.00,Wunderground v.1.15,2013-02-18 17:00:00,
2013-02-18 12:05:00,61.4,43.6,30.32,ESE,111,6.0,7.0,52,0.00,,,0.00,Wunderground v.1.15,2013-02-18 17:05:00,
2013-02-18 12:10:00,61.6,42.8,30.32,NNE,19,6.0,6.0,50,0.00,,,0.00,Wunderground v.1.15,2013-02-18 17:10:00,
2013-02-18 12:15:00,61.9,43.6,30.31,NE,49,7.0,7.0,51,0.00,,,0.00,Wunderground v.1.15,2013-02-18 17:15:00,
2013-02-18 12:20:00,62.0,43.1,30.31,East,98,7.0,7.0,50,0.00,,,0.00,Wunderground v.1.15,2013-02-18 17:20:00,
2013-02-18 12:25:00,62.3,43.9,30.31,East,96,6.0,7.0,51,0.00,,,0.00,Wunderground v.1.15,2013-02-18 17:25:00,
2013-02-18 12:30:00,62.3,43.4,30.31,ENE,59,6.0,6.0,50,0.00,,,0.00,Wunderground v.1.15,2013-02-18 17:30:00,
2013-02-18 12:35:00,62.5,44.1,30.30,East,86,7.0,7.0,51,0.00,,,0.00,Wunderground v.1.15,2013-02-18 17:35:00,
2013-02-18 12:40:00,62.9,44.0,30.30,East,99,6.0,6.0,50,0.00,,,0.00,Wunderground v.1.15,2013-02-18 17:40:00,
2013-02-18 12:45:00,63.0,44.6,30.29,ESE,123,6.0,11.0,51,0.00,,,0.00,Wunderground v.1.15,2013-02-18 17:45:00,
2013-02-18 12:55:00,63.9,44.9,30.29,East,100,6.0,6.0,50,0.00,,,0.00,Wunderground v.1.15,2013-02-18 17:55:00,
2013-02-18 13:00:00,63.8,44.8,30.28,East,100,6.0,6.0,50,0.00,,,0.00,Wunderground v.1.15,2013-02-18 18:00:00,
2013-02-18 13:05:00,63.9,44.9,30.27,East,80,6.0,6.0,50,0.00,,,0.00,Wunderground v.1.15,2013-02-18 18:05:00,
2013-02-18 13:10:00,64.1,45.1,30.27,SE,128,6.0,6.0,50,0.00,,,0.00,Wunderground v.1.15,2013-02-18 18:10:00,
2013-02-18 13:15:00,64.4,45.3,30.26,ESE,115,6.0,6.0,50,0.00,,,0.00,Wunderground v.1.15,2013-02-18 18:15:00,
2013-02-18 13:20:00,64.8,45.7,30.26,East,89,5.0,5.0,50,0.00,,,0.00,Wunderground v.1.15,2013-02-18 18:20:00,
2013-02-18 13:25:00,64.9,45.8,30.26,SE,132,6.0,6.0,50,0.00,,,0.00,Wunderground v.1.15,2013-02-18 18:25:00,
2013-02-18 13:30:00,64.9,45.8,30.26,East,82,7.0,7.0,50,0.00,,,0.00,Wunderground v.1.15,2013-02-18 18:30:00,
2013-02-18 13:35:00,65.1,46.0,30.25,NE,49,5.0,7.0,50,0.00,,,0.00,Wunderground v.1.15,2013-02-18 18:35:00,
2013-02-18 13:40:00,65.2,46.1,30.25,ENE,58,5.0,11.0,50,0.00,,,0.00,Wunderground v.1.15,2013-02-18 18:40:00,
2013-02-18 13:45:00,65.6,46.5,30.25,East,91,6.0,11.0,50,0.00,,,0.00,Wunderground v.1.15,2013-02-18 18:45:00,
2013-02-18 13:50:00,65.6,46.5,30.25,NE,34,5.0,10.0,50,0.00,,,0.00,Wunderground v.1.15,2013-02-18 18:50:00,
2013-02-18 13:55:00,66.3,45.5,30.25,ENE,68,4.0,10.0,47,0.00,,,0.00,Wunderground v.1.15,2013-02-18 18:55:00,
2013-02-18 14:05:00,66.7,45.8,30.25,ESE,121,7.0,7.0,47,0.00,,,0.00,Wunderground v.1.15,2013-02-18 19:05:00,
2013-02-18 14:10:00,66.8,46.5,30.25,East,98,6.0,6.0,48,0.00,,,0.00,Wunderground v.1.15,2013-02-18 19:10:00,
2013-02-18 14:15:00,67.1,46.2,30.24,ESE,102,4.0,6.0,47,0.00,,,0.00,Wunderground v.1.15,2013-02-18 19:15:00,
2013-02-18 14:20:00,67.6,46.1,30.24,East,86,4.0,4.0,46,0.00,,,0.00,Wunderground v.1.15,2013-02-18 19:20:00,
2013-02-18 14:25:00,68.0,46.4,30.24,ESE,110,6.0,10.0,46,0.00,,,0.00,Wunderground v.1.15,2013-02-18 19:25:00,
2013-02-18 14:30:00,67.9,46.3,30.24,ESE,118,6.0,6.0,46,0.00,,,0.00,Wunderground v.1.15,2013-02-18 19:30:00,
2013-02-18 14:35:00,67.2,45.7,30.24,ESE,113,5.0,6.0,46,0.00,,,0.00,Wunderground v.1.15,2013-02-18 19:35:00,
2013-02-18 14:45:00,67.2,46.8,30.23,ESE,114,4.0,5.0,48,0.00,,,0.00,Wunderground v.1.15,2013-02-18 19:45:00,
2013-02-18 14:50:00,66.8,46.5,30.23,East,82,4.0,7.0,48,0.00,,,0.00,Wunderground v.1.15,2013-02-18 19:50:00,
2013-02-18 14:55:00,66.4,46.1,30.23,ENE,65,5.0,7.0,48,0.00,,,0.00,Wunderground v.1.15,2013-02-18 19:55:00,
2013-02-18 15:00:00,66.6,45.7,30.23,East,80,5.0,6.0,47,0.00,,,0.00,Wunderground v.1.15,2013-02-18 20:00:00,
2013-02-18 15:05:00,66.5,46.2,30.23,ENE,73,4.0,6.0,48,0.00,,,0.00,Wunderground v.1.15,2013-02-18 20:05:00,
2013-02-18 15:15:00,68.0,47.6,30.23,SE,132,5.0,8.0,48,0.00,,,0.00,Wunderground v.1.15,2013-02-18 20:15:00,
2013-02-18 15:25:00,68.5,48.0,30.22,ESE,121,5.0,7.0,48,0.00,,,0.00,Wunderground v.1.15,2013-02-18 20:25:00,
2013-02-18 15:35:00,67.5,46.6,30.22,East,91,6.0,6.0,47,0.00,,,0.00,Wunderground v.1.15,2013-02-18 20:35:00,
2013-02-18 15:40:00,67.1,46.7,30.23,East,85,5.0,5.0,48,0.00,,,0.00,Wunderground v.1.15,2013-02-18 20:40:00,
2013-02-18 15:45:00,66.8,47.0,30.22,ESE,110,4.0,7.0,49,0.00,,,0.00,Wunderground v.1.15,2013-02-18 20:45:00,
2013-02-18 15:55:00,67.9,47.5,30.23,SE,136,6.0,9.0,48,0.00,,,0.00,Wunderground v.1.15,2013-02-18 20:55:00,
2013-02-18 16:00:00,67.4,47.6,30.23,ESE,103,6.0,6.0,49,0.00,,,0.00,Wunderground v.1.15,2013-02-18 21:00:00,
2013-02-18 16:05:00,67.3,47.5,30.23,ENE,57,5.0,6.0,49,0.00,,,0.00,Wunderground v.1.15,2013-02-18 21:05:00,
2013-02-18 16:15:00,67.0,46.7,30.22,ENE,71,5.0,9.0,48,0.00,,,0.00,Wunderground v.1.15,2013-02-18 21:15:00,
2013-02-18 16:20:00,66.9,47.1,30.23,SE,136,5.0,5.0,49,0.00,,,0.00,Wunderground v.1.15,2013-02-18 21:20:00,
2013-02-18 16:30:00,66.7,46.9,30.23,ENE,74,2.0,3.0,49,0.00,,,0.00,Wunderground v.1.15,2013-02-18 21:30:00,
2013-02-18 16:35:00,66.5,47.3,30.23,ESE,116,3.0,3.0,50,0.00,,,0.00,Wunderground v.1.15,2013-02-18 21:35:00,
2013-02-18 16:45:00,66.0,46.8,30.23,East,101,4.0,5.0,50,0.00,,,0.00,Wunderground v.1.15,2013-02-18 21:45:00,
2013-02-18 16:50:00,65.6,46.5,30.23,East,91,3.0,3.0,50,0.00,,,0.00,Wunderground v.1.15,2013-02-18 21:50:00,
2013-02-18 16:55:00,65.7,47.1,30.23,SE,128,3.0,4.0,51,0.00,,,0.00,Wunderground v.1.15,2013-02-18 21:55:00,
2013-02-18 17:00:00,65.9,47.3,30.23,East,86,3.0,3.0,51,0.00,,,0.00,Wunderground v.1.15,2013-02-18 22:00:00,
2013-02-18 17:05:00,66.2,47.5,30.23,ESE,108,5.0,7.0,51,0.00,,,0.00,Wunderground v.1.15,2013-02-18 22:05:00,
2013-02-18 17:10:00,66.1,47.4,30.23,SE,127,6.0,6.0,51,0.00,,,0.00,Wunderground v.1.15,2013-02-18 22:10:00,
2013-02-18 17:15:00,65.9,47.3,30.23,East,101,5.0,6.0,51,0.00,,,0.00,Wunderground v.1.15,2013-02-18 22:15:00,
2013-02-18 17:20:00,65.9,47.8,30.23,East,79,4.0,4.0,52,0.00,,,0.00,Wunderground v.1.15,2013-02-18 22:20:00,
2013-02-18 17:25:00,65.6,47.5,30.23,East,93,4.0,4.0,52,0.00,,,0.00,Wunderground v.1.15,2013-02-18 22:25:00,
2013-02-18 17:30:00,65.2,47.1,30.23,East,98,4.0,4.0,52,0.00,,,0.00,Wunderground v.1.15,2013-02-18 22:30:00,
2013-02-18 17:35:00,64.6,47.1,30.23,SE,128,4.0,4.0,53,0.00,,,0.00,Wunderground v.1.15,2013-02-18 22:35:00,
2013-02-18 19:30:00,59.1,47.3,30.23,East,90,2.0,2.0,65,0.00,,,0.00,Wunderground v.1.15,2013-02-19 00:30:00,
2013-02-18 19:35:00,59.0,47.7,30.22,East,90,1.0,2.0,66,0.00,,,0.00,Wunderground v.1.15,2013-02-19 00:35:00,
2013-02-18 19:40:00,59.0,47.7,30.22,East,90,1.0,1.0,66,0.00,,,0.00,Wunderground v.1.15,2013-02-19 00:40:00,
2013-02-18 19:45:00,58.7,47.8,30.22,East,92,2.0,2.0,67,0.00,,,0.00,Wunderground v.1.15,2013-02-19 00:45:00,
2013-02-18 19:50:00,58.6,47.7,30.22,East,92,2.0,2.0,67,0.00,,,0.00,Wunderground v.1.15,2013-02-19 00:50:00,
2013-02-18 19:55:00,58.4,47.9,30.22,East,93,3.0,3.0,68,0.00,,,0.00,Wunderground v.1.15,2013-02-19 00:55:00,
2013-02-18 20:00:00,58.2,47.7,30.22,East,92,2.0,2.0,68,0.00,,,0.00,Wunderground v.1.15,2013-02-19 01:00:00,
2013-02-18 20:05:00,58.1,47.6,30.23,East,92,2.0,2.0,68,0.00,,,0.00,Wunderground v.1.15,2013-02-19 01:05:00,
2013-02-18 20:10:00,57.9,47.8,30.23,East,92,2.0,2.0,69,0.00,,,0.00,Wunderground v.1.15,2013-02-19 01:10:00,
2013-02-18 20:15:00,57.7,47.6,30.23,East,92,2.0,2.0,69,0.00,,,0.00,Wunderground v.1.15,2013-02-19 01:15:00,
2013-02-18 20:20:00,57.5,47.4,30.23,East,92,1.0,1.0,69,0.00,,,0.00,Wunderground v.1.15,2013-02-19 01:20:00,
2013-02-18 20:25:00,57.1,47.4,30.23,East,92,0.0,1.0,70,0.00,,,0.00,Wunderground v.1.15,2013-02-19 01:25:00,
2013-02-18 20:30:00,56.8,47.1,30.23,East,92,0.0,0.0,70,0.00,,,0.00,Wunderground v.1.15,2013-02-19 01:30:00,
2013-02-18 20:35:00,56.6,47.3,30.24,East,92,0.0,1.0,71,0.00,,,0.00,Wunderground v.1.15,2013-02-19 01:35:00,
2013-02-18 20:40:00,56.3,47.0,30.24,East,92,0.0,0.0,71,0.00,,,0.00,Wunderground v.1.15,2013-02-19 01:40:00,
2013-02-18 20:45:00,56.1,47.2,30.23,East,92,0.0,0.0,72,0.00,,,0.00,Wunderground v.1.15,2013-02-19 01:45:00,
2013-02-18 20:50:00,55.8,46.9,30.23,East,92,0.0,0.0,72,0.00,,,0.00,Wunderground v.1.15,2013-02-19 01:50:00,
2013-02-18 20:55:00,55.6,47.1,30.24,East,92,0.0,2.0,73,0.00,,,0.00,Wunderground v.1.15,2013-02-19 01:55:00,
2013-02-18 21:00:00,55.5,47.0,30.24,East,92,0.0,0.0,73,0.00,,,0.00,Wunderground v.1.15,2013-02-19 02:00:00,
2013-02-18 21:05:00,55.5,47.3,30.23,East,92,0.0,0.0,74,0.00,,,0.00,Wunderground v.1.15,2013-02-19 02:05:00,
2013-02-18 21:15:00,55.4,47.2,30.23,East,92,0.0,0.0,74,0.00,,,0.00,Wunderground v.1.15,2013-02-19 02:15:00,
2013-02-18 21:20:00,55.4,47.2,30.23,East,92,1.0,1.0,74,0.00,,,0.00,Wunderground v.1.15,2013-02-19 02:20:00,
2013-02-18 21:25:00,55.2,47.4,30.23,East,92,1.0,1.0,75,0.00,,,0.00,Wunderground v.1.15,2013-02-19 02:25:00,
2013-02-18 21:30:00,55.1,47.3,30.23,East,92,0.0,0.0,75,0.00,,,0.00,Wunderground v.1.15,2013-02-19 02:30:00,
2013-02-18 21:35:00,54.9,47.1,30.23,East,92,0.0,0.0,75,0.00,,,0.00,Wunderground v.1.15,2013-02-19 02:35:00,
2013-02-18 21:45:00,54.4,47.0,30.23,East,92,0.0,0.0,76,0.00,,,0.00,Wunderground v.1.15,2013-02-19 02:45:00,
2013-02-18 21:50:00,54.1,47.0,30.23,East,92,0.0,0.0,77,0.00,,,0.00,Wunderground v.1.15,2013-02-19 02:50:00,
2013-02-18 21:55:00,53.8,46.8,30.23,East,92,0.0,0.0,77,0.00,,,0.00,Wunderground v.1.15,2013-02-19 02:55:00,
2013-02-18 22:00:00,53.7,46.7,30.23,East,92,0.0,0.0,77,0.00,,,0.00,Wunderground v.1.15,2013-02-19 03:00:00,
2013-02-18 22:05:00,53.4,46.7,30.23,East,92,0.0,0.0,78,0.00,,,0.00,Wunderground v.1.15,2013-02-19 03:05:00,
2013-02-18 22:15:00,53.0,46.3,30.22,East,92,0.0,0.0,78,0.00,,,0.00,Wunderground v.1.15,2013-02-19 03:15:00,
2013-02-18 22:25:00,52.7,46.7,30.22,East,92,0.0,0.0,80,0.00,,,0.00,Wunderground v.1.15,2013-02-19 03:25:00,
2013-02-18 22:30:00,52.6,46.6,30.21,East,92,0.0,0.0,80,0.00,,,0.00,Wunderground v.1.15,2013-02-19 03:30:00,
2013-02-18 22:35:00,52.7,46.7,30.21,East,92,0.0,0.0,80,0.00,,,0.00,Wunderground v.1.15,2013-02-19 03:35:00,
2013-02-18 22:40:00,52.8,47.1,30.21,East,92,0.0,0.0,81,0.00,,,0.00,Wunderground v.1.15,2013-02-19 03:40:00,
2013-02-18 22:45:00,53.0,47.3,30.21,East,92,0.0,0.0,81,0.00,,,0.00,Wunderground v.1.15,2013-02-19 03:45:00,
2013-02-18 22:50:00,53.2,47.2,30.21,East,92,0.0,0.0,80,0.00,,,0.00,Wunderground v.1.15,2013-02-19 03:50:00,
2013-02-18 23:00:00,53.0,47.3,30.21,East,92,0.0,0.0,81,0.00,,,0.00,Wunderground v.1.15,2013-02-19 04:00:00,
2013-02-18 23:05:00,52.8,47.1,30.21,East,92,0.0,0.0,81,0.00,,,0.00,Wunderground v.1.15,2013-02-19 04:05:00,
2013-02-18 23:10:00,52.6,46.9,30.21,East,92,0.0,0.0,81,0.00,,,0.00,Wunderground v.1.15,2013-02-19 04:10:00,
2013-02-18 23:15:00,52.3,46.6,30.20,East,92,0.0,0.0,81,0.00,,,0.00,Wunderground v.1.15,2013-02-19 04:15:00,
2013-02-18 23:20:00,52.0,46.7,30.20,East,92,0.0,0.0,82,0.00,,,0.00,Wunderground v.1.15,2013-02-19 04:20:00,
2013-02-18 23:25:00,51.8,46.5,30.20,East,92,0.0,0.0,82,0.00,,,0.00,Wunderground v.1.15,2013-02-19 04:25:00,
2013-02-18 23:30:00,51.5,46.5,30.20,East,92,0.0,0.0,83,0.00,,,0.00,Wunderground v.1.15,2013-02-19 04:30:00,
2013-02-18 23:35:00,51.4,46.4,30.19,East,92,0.0,0.0,83,0.00,,,0.00,Wunderground v.1.15,2013-02-19 04:35:00,
2013-02-18 23:40:00,51.4,46.7,30.19,East,92,0.0,0.0,84,0.00,,,0.00,Wunderground v.1.15,2013-02-19 04:40:00,
2013-02-18 23:45:00,51.4,46.7,30.19,East,92,0.0,2.0,84,0.00,,,0.00,Wunderground v.1.15,2013-02-19 04:45:00,
2013-02-18 23:50:00,51.4,46.7,30.19,East,92,1.0,1.0,84,0.00,,,0.00,Wunderground v.1.15,2013-02-19 04:50:00,
2013-02-18 23:55:00,51.3,46.6,30.19,East,92,1.0,1.0,84,0.00,,,0.00,Wunderground v.1.15,2013-02-19 04:55:00,